CW5629 Weather Reports


Display with metric or nautical units.
time (UTC)temp
F
wind
direction
speed
MPH
gust
MPH
rain 1hr
in
rain 24hr
in
rain mn
in
humidity
%
barometer
mb
20260905095150 67 226 0.0 3.0 0.00 0.00 0.00 58 1024.6
20260905094114 65 226 0.0 1.0 0.00 0.00 0.00 64 1024.6
20260905093126 65 226 1.0 3.0 0.00 0.00 0.00 62 1024.7
20260905092139 65 226 0.0 1.0 0.00 0.00 0.00 64 1024.6
20260905091131 64 226 0.0 1.0 0.00 0.00 0.00 64 1024.3
20260905090117 64 226 0.0 1.0 0.00 0.00 0.00 64 1024.3
20260905085130 65 226 0.0 4.0 0.00 0.00 0.00 63 1024.2
20260905084117 67 226 0.0 1.0 0.00 0.00 0.00 65 1024.2
20260905083148 65 226 0.0 1.0 0.00 0.00 0.00 68 1024.1
20260905082120 64 226 0.0 1.0 0.00 0.00 0.00 71 1024.0
20260905081125 62 226 0.0 2.0 0.00 0.00 0.00 76 1023.8
20260905080119 61 226 0.0 1.0 0.00 0.00 0.00 83 1023.7
20260905075132 59 226 0.0 0.0 0.00 0.00 0.00 88 1023.7
20260905074117 58 226 0.0 0.0 0.00 0.00 0.00 90 1023.6
20260905073130 57 226 0.0 0.0 0.00 0.00 0.00 92 1023.6
20260905072118 56 226 0.0 0.0 0.00 0.00 0.00 94 1023.4
20260905071132 55 226 0.0 0.0 0.00 0.00 0.00 94 1023.3
20260905070118 55 226 0.0 0.0 0.00 0.00 0.00 94 1023.3
20260905065131 54 226 0.0 0.0 0.00 0.00 0.00 94 1023.3
20260905064116 54 226 0.0 0.0 0.00 0.00 0.00 94 1023.0
20260905063113 54 226 0.0 0.0 0.00 0.00 0.00 93 1023.0
20260905062140 54 226 0.0 0.0 0.00 0.00 0.00 94 1022.9
20260905061138 54 226 0.0 0.0 0.00 0.12 0.00 94 1022.9
20260905060129 54 226 0.0 0.0 0.00 0.12 0.00 94 1022.9
20260905055116 54 226 0.0 0.0 0.00 0.12 0.00 94 1022.8
20260905054112 54 226 0.0 0.0 0.00 0.12 0.00 94 1022.7
20260905053120 54 226 0.0 0.0 0.00 0.12 0.00 94 1022.6
20260905052126 54 226 0.0 0.0 0.00 0.12 0.00 94 1022.6
20260905051138 54 226 0.0 0.0 0.00 0.12 0.00 94 1022.6
20260905050150 54 226 0.0 0.0 0.00 0.12 0.00 94 1022.5
20260905045121 54 226 0.0 0.0 0.00 0.12 0.00 94 1022.3
20260905044111 53 226 0.0 0.0 0.00 0.12 0.00 95 1022.4
20260905043124 53 226 0.0 0.0 0.00 0.12 0.00 94 1022.2
20260905042136 52 226 0.0 0.0 0.00 0.12 0.00 95 1022.3
20260905041120 52 226 0.0 1.0 0.00 0.12 0.00 95 1022.2
20260905040133 51 226 0.0 0.0 0.00 0.12 0.00 94 1022.1
20260905035124 51 226 0.0 0.0 0.00 0.12 0.00 93 1022.0
20260905034138 51 226 0.0 0.0 0.00 0.12 0.00 93 1021.8
20260905033123 52 226 0.0 0.0 0.00 0.12 0.00 93 1021.8
20260905032137 52 226 0.0 0.0 0.00 0.12 0.00 94 1021.6
20260905031143 52 226 0.0 0.0 0.00 0.12 0.00 94 1021.5
20260905030134 51 226 0.0 0.0 0.00 0.12 0.00 94 1021.6
20260905025126 50 226 0.0 0.0 0.00 0.12 0.00 94 1021.5
20260905024113 50 226 0.0 0.0 0.00 0.12 0.00 93 1021.4
20260905023126 50 226 0.0 0.0 0.00 0.12 0.00 92 1021.3
20260905022111 50 226 0.0 0.0 0.00 0.12 0.00 92 1021.2
20260905021124 50 226 0.0 0.0 0.00 0.12 0.00 92 1021.1
20260905020117 51 226 0.0 0.0 0.00 0.12 0.00 92 1021.1
20260905015123 51 226 0.0 0.0 0.00 0.12 0.00 92 1021.1
20260905014116 51 226 0.0 0.0 0.00 0.12 0.00 92 1021.0
20260905013128 51 226 0.0 0.0 0.00 0.12 0.00 91 1021.0
20260905012115 51 226 0.0 0.0 0.00 0.12 0.00 91 1021.0
20260905011127 52 226 0.0 0.0 0.00 0.12 0.00 91 1021.0
20260905010113 51 226 0.0 0.0 0.00 0.12 0.00 91 1020.9
20260905005125 51 226 0.0 0.0 0.00 0.12 0.00 90 1021.0
20260905004111 51 226 0.0 0.0 0.00 0.12 0.00 89 1020.9
20260905003124 52 226 0.0 0.0 0.00 0.12 0.00 89 1020.9
20260905002117 52 226 0.0 0.0 0.00 0.12 0.00 88 1020.9
20260905001123 52 226 0.0 0.0 0.00 0.12 0.00 87 1020.8
20260905000116 53 226 0.0 0.0 0.00 0.12 0.00 87 1020.7
20260904235122 53 226 0.0 0.0 0.00 0.12 0.00 86 1020.7
20260904234116 54 226 0.0 0.0 0.00 0.12 0.00 85 1020.7
20260904233129 55 226 0.0 0.0 0.00 0.12 0.00 84 1020.6
20260904232113 56 226 0.0 0.0 0.00 0.12 0.00 84 1020.6
20260904231125 56 226 0.0 0.0 0.00 0.12 0.02 84 1020.5
20260904230131 57 226 0.0 1.0 0.00 0.12 0.02 84 1020.4
20260904225124 57 226 0.0 0.0 0.00 0.12 0.02 85 1020.3
20260904224114 57 226 1.0 3.0 0.00 0.12 0.02 85 1020.2
20260904223126 56 226 0.0 2.0 0.00 0.12 0.02 86 1020.2
20260904222138 56 226 0.0 2.0 0.00 0.12 0.02 86 1020.1
20260904221124 56 226 0.0 1.0 0.00 0.12 0.02 86 1020.1
20260904220138 56 226 0.0 0.0 0.00 0.12 0.02 86 1019.9
20260904215152 56 226 0.0 2.0 0.00 0.12 0.02 86 1020.0
20260904214117 56 226 0.0 0.0 0.00 0.12 0.02 86 1019.9
20260904213130 57 226 0.0 1.0 0.00 0.12 0.02 86 1019.9
20260904212117 57 226 0.0 0.0 0.00 0.12 0.02 86 1019.8
20260904211129 57 226 0.0 1.0 0.00 0.12 0.02 85 1019.7
20260904210115 57 226 0.0 0.0 0.00 0.12 0.02 85 1019.8
20260904205125 58 226 0.0 0.0 0.00 0.12 0.02 84 1019.8
20260904204119 58 226 0.0 0.0 0.00 0.12 0.02 83 1019.8
20260904203134 58 226 0.0 1.0 0.00 0.12 0.02 83 1019.7
20260904202138 59 226 0.0 1.0 0.00 0.12 0.02 83 1019.6
20260904201130 59 226 0.0 1.0 0.00 0.12 0.02 83 1019.6
20260904200120 59 226 0.0 3.0 0.00 0.12 0.02 83 1019.4
20260904195135 59 226 0.0 1.0 0.00 0.12 0.02 82 1019.3
20260904194117 60 226 0.0 1.0 0.00 0.12 0.02 81 1019.2
20260904193129 60 226 0.0 3.0 0.00 0.12 0.02 80 1019.1
20260904192120 61 226 0.0 1.0 0.00 0.12 0.02 79 1019.0
20260904191126 61 226 0.0 2.0 0.00 0.12 0.02 78 1018.9
20260904190119 61 226 0.0 2.0 0.00 0.12 0.02 77 1018.8
20260904185132 62 226 0.0 5.0 0.00 0.12 0.02 76 1018.7
20260904184131 62 226 1.0 4.0 0.00 0.12 0.02 75 1018.5
20260904183121 62 226 1.0 5.0 0.00 0.12 0.02 74 1018.6
20260904182135 63 222 1.0 2.0 0.00 0.12 0.02 74 1018.5
20260904181139 63 222 1.0 5.0 0.00 0.12 0.02 73 1018.4
20260904180130 63 36 0.0 2.0 0.00 0.12 0.02 74 1018.5
20260904175113 63 221 0.0 1.0 0.00 0.12 0.02 75 1018.5
20260904174128 64 51 0.0 5.0 0.00 0.12 0.02 74 1018.1
20260904173119 64 124 0.0 4.0 0.00 0.12 0.02 74 1018.3
20260904172132 64 347 1.0 6.0 0.00 0.12 0.02 73 1018.6
20260904171118 64 216 0.0 3.0 0.00 0.12 0.02 73 1018.2
20260904170128 64 203 0.0 2.0 0.00 0.12 0.02 73 1018.0
20260904165114 64 66 1.0 3.0 0.00 0.12 0.02 71 1017.9
20260904164127 64 188 1.0 4.0 0.00 0.12 0.02 70 1017.9
20260904163140 65 221 0.0 3.0 0.00 0.12 0.02 69 1017.7
20260904162125 65 265 1.0 4.0 0.00 0.12 0.02 67 1017.6
20260904161119 65 251 1.0 9.0 0.00 0.12 0.02 66 1017.8
20260904160152 65 242 1.0 6.0 0.00 0.12 0.02 67 1017.7
20260904155120 66 219 1.0 4.0 0.00 0.12 0.02 68 1017.5
20260904154132 66 191 0.0 3.0 0.00 0.12 0.02 69 1017.6
20260904153146 66 21 1.0 4.0 0.00 0.12 0.02 69 1017.6
20260904152130 66 46 1.0 6.0 0.00 0.12 0.02 68 1017.6
20260904151120 66 229 0.0 3.0 0.00 0.12 0.02 69 1017.6
20260904150130 66 262 0.0 3.0 0.00 0.12 0.02 68 1017.5
20260904145136 66 328 1.0 7.0 0.00 0.12 0.02 68 1017.4
20260904144155 66 235 2.0 4.0 0.00 0.12 0.02 67 1017.4
20260904143119 66 206 1.0 5.0 0.00 0.12 0.02 67 1017.4
20260904142131 66 333 1.0 2.0 0.00 0.12 0.02 67 1017.2
20260904141135 66 231 0.0 4.0 0.00 0.12 0.02 67 1017.0
20260904140124 66 236 1.0 4.0 0.00 0.12 0.02 67 1017.1
20260904135117 66 211 0.0 4.0 0.00 0.12 0.02 66 1016.9
20260904134122 66 248 0.0 2.0 0.00 0.12 0.02 66 1016.9
20260904133134 66 323 0.0 4.0 0.00 0.12 0.02 66 1016.9
20260904132126 66 184 1.0 3.0 0.00 0.12 0.02 66 1016.6
20260904131139 66 217 0.0 3.0 0.00 0.12 0.02 65 1016.5
20260904130122 66 221 0.0 8.0 0.00 0.12 0.02 64 1016.4
20260904125138 67 257 0.0 5.0 0.00 0.12 0.02 66 1016.3
20260904124150 67 206 1.0 5.0 0.00 0.12 0.02 65 1016.3
20260904123142 67 1 0.0 3.0 0.00 0.12 0.02 64 1016.1
20260904122127 68 226 1.0 4.0 0.00 0.12 0.02 65 1015.9
20260904121121 68 345 1.0 6.0 0.00 0.12 0.02 68 1015.8
20260904120126 69 224 1.0 4.0 0.00 0.12 0.02 68 1015.8
20260904115138 69 238 1.0 8.0 0.00 0.12 0.02 66 1015.6
20260904114129 69 240 2.0 7.0 0.00 0.12 0.02 67 1015.5
20260904113114 69 318 1.0 6.0 0.00 0.12 0.02 69 1015.4
20260904112148 69 39 2.0 9.0 0.00 0.12 0.02 69 1015.3
20260904111120 69 268 1.0 5.0 0.00 0.12 0.02 71 1015.2
20260904110127 68 120 2.0 6.0 0.00 0.12 0.02 73 1015.1
20260904105110 68 222 0.0 6.0 0.00 0.12 0.02 74 1014.9
20260904104123 68 108 1.0 5.0 0.00 0.12 0.02 76 1015.0
20260904103110 67 250 1.0 3.0 0.00 0.12 0.02 77 1014.9
20260904102125 67 354 1.0 5.0 0.00 0.12 0.02 78 1014.9
20260904101110 67 176 1.0 3.0 0.00 0.12 0.02 80 1014.9
20260904100122 67 240 0.0 4.0 0.00 0.12 0.02 82 1014.8